GW0523 Weather Reports


time (UTC)temp
F
wind
direction
speed
knots
gust
knots
rain 1hr
in
rain 24hr
in
rain mn
in
humidity
%
barometer
mb
20260508100621 58 68 3.5 6.1 0.00 0.00 0.00 64 1013.1
20260508095638 58 90 2.6 3.5 0.00 0.00 0.00 63 1013.0
20260508094614 58 90 2.6 3.5 0.00 0.00 0.00 63 1013.0
20260508093649 58 90 2.6 4.3 0.00 0.00 0.00 63 1013.1
20260508092604 60 90 3.5 4.3 0.00 0.00 0.00 65 1013.1
20260508091559 59 118 1.7 3.5 0.00 0.00 0.00 67 1013.2
20260508090554 59 90 1.7 3.5 0.00 0.00 0.00 72 1013.1
20260508085609 55 90 0.9 3.5 0.00 0.00 0.00 75 1013.0
20260508084604 53 0.9 1.7 0.00 0.00 0.00 80 1012.9
20260508083540 53 0.9 3.5 0.00 0.00 0.00 81 1013.0
20260508082536 53 0.0 0.9 0.00 0.00 0.00 85 1013.0
20260508081532 51 90 0.9 2.6 0.00 0.00 0.00 86 1013.0
20260508080628 50 0.0 0.0 0.00 0.00 0.00 87 1012.8
20260508075623 50 0.0 0.0 0.00 0.00 0.00 89 1012.8
20260508074618 49 0.0 0.0 0.00 0.00 0.00 89 1012.7
20260508073613 48 0.0 0.0 0.00 0.00 0.00 90 1012.8
20260508072610 48 0.0 0.0 0.00 0.00 0.00 90 1012.8
20260508071605 48 0.0 0.0 0.00 0.00 0.00 90 1012.7
20260508070602 48 0.0 0.0 0.00 0.00 0.00 90 1012.7
20260508065558 47 0.0 0.0 0.00 0.00 0.00 90 1012.5
20260508064555 47 0.0 0.0 0.00 0.00 0.00 90 1012.6
20260508063550 47 0.0 0.0 0.00 0.00 0.00 90 1012.5
20260508062544 46 0.0 0.0 0.00 0.00 0.00 90 1012.4
20260508061540 46 0.0 0.0 0.00 0.00 0.00 90 1012.5
20260508060535 46 0.0 0.9 0.00 0.00 0.00 90 1012.3
20260508055531 46 0.0 0.0 0.00 0.00 0.00 90 1012.1
20260508054528 46 0.0 0.0 0.00 0.00 0.00 90 1012.1
20260508053623 46 0.0 0.0 0.00 0.00 0.00 90 1011.9
20260508052618 45 0.0 0.0 0.00 0.00 0.00 93 1012.0
20260508051633 45 0.0 0.0 0.00 0.00 0.00 93 1011.8
20260508050608 45 0.0 0.0 0.00 0.00 0.00 93 1012.0
20260508045603 45 0.0 0.0 0.00 0.00 0.00 93 1011.9
20260508044618 45 0.0 0.0 0.00 0.00 0.00 93 1011.8
20260508043554 45 0.0 0.0 0.00 0.00 0.00 92 1011.9
20260508042610 45 0.0 0.0 0.00 0.00 0.00 92 1011.9
20260508041546 45 0.9 1.7 0.00 0.00 0.00 92 1011.7
20260508040541 44 0.0 1.7 0.00 0.00 0.00 91 1011.8
20260508035536 44 0.0 0.0 0.00 0.00 0.00 91 1011.9
20260508034531 44 0.0 0.0 0.00 0.00 0.00 91 1011.9
20260508033527 44 0.0 0.0 0.00 0.00 0.00 90 1011.9
20260508032523 45 0.0 0.0 0.00 0.00 0.00 90 1011.9
20260508031620 45 0.0 0.0 0.00 0.00 0.00 90 1011.9
20260508030616 45 0.0 0.0 0.00 0.00 0.00 89 1011.8
20260508025712 45 0.0 0.0 0.00 0.00 0.00 90 1011.8
20260508024608 44 0.0 0.0 0.00 0.00 0.00 90 1011.9
20260508023603 44 0.0 0.0 0.00 0.00 0.00 90 1011.9
20260508022558 45 0.0 0.0 0.00 0.00 0.00 90 1011.9
20260508021614 45 0.0 0.0 0.00 0.00 0.00 90 1011.8
20260508020549 44 0.0 0.0 0.00 0.00 0.00 89 1011.7
20260508015545 45 0.0 0.0 0.00 0.00 0.00 89 1011.7
20260508014542 44 0.0 0.0 0.00 0.00 0.00 89 1011.7
20260508013537 45 0.0 0.0 0.00 0.00 0.00 89 1011.8
20260508012552 45 0.0 0.0 0.00 0.00 0.00 89 1011.8
20260508011526 45 0.0 0.0 0.00 0.00 0.00 90 1011.8
20260508010522 44 0.0 0.0 0.00 0.00 0.00 88 1011.9
20260508005516 44 0.0 0.0 0.00 0.00 0.00 87 1012.0
20260508004612 45 0.0 0.0 0.00 0.00 0.00 87 1012.0
20260508003608 45 0.0 0.0 0.00 0.00 0.00 86 1012.0
20260508002604 45 0.0 0.0 0.00 0.00 0.00 86 1012.1
20260508001600 45 0.0 0.0 0.00 0.00 0.00 86 1012.2
20260508000655 45 0.0 0.0 0.00 0.00 0.00 84 1012.1
20260507235710 44 0.0 0.0 0.00 0.00 0.00 85 1012.3
20260507234645 44 0.0 0.0 0.00 0.00 0.00 83 1012.3
20260507233641 44 0.0 0.0 0.00 0.00 0.00 83 1012.2
20260507232637 46 0.0 0.0 0.00 0.00 0.00 79 1012.2
20260507231634 46 0.0 0.0 0.00 0.00 0.00 80 1012.1
20260507230630 46 0.0 0.0 0.00 0.00 0.00 80 1012.1
20260507225626 46 0.0 0.0 0.00 0.00 0.00 80 1012.0
20260507224622 45 225 0.0 1.7 0.00 0.00 0.00 84 1012.0
20260507223617 45 0.0 0.0 0.00 0.00 0.00 83 1012.1
20260507222612 46 225 0.0 1.7 0.00 0.00 0.00 79 1012.2
20260507221607 46 0.0 0.0 0.00 0.00 0.00 78 1012.1
20260507220603 46 0.0 0.0 0.00 0.00 0.00 78 1012.1
20260507215559 46 0.0 0.0 0.00 0.00 0.00 77 1012.1
20260507214555 47 0.0 0.0 0.00 0.00 0.00 76 1012.3
20260507213651 47 0.0 0.0 0.00 0.00 0.00 75 1012.2
20260507212645 47 0.0 0.0 0.00 0.00 0.00 75 1012.1
20260507211640 48 0.0 0.0 0.00 0.00 0.00 74 1012.1
20260507210635 48 331 0.9 1.7 0.00 0.00 0.00 75 1011.9
20260507205630 49 329 1.7 3.5 0.00 0.00 0.00 75 1011.9
20260507204625 49 0 0.9 1.7 0.00 0.00 0.00 73 1011.9
20260507203641 49 205 1.7 3.5 0.00 0.00 0.00 74 1011.8
20260507202617 49 315 1.7 3.5 0.00 0.00 0.00 74 1011.7
20260507201614 50 315 0.9 0.9 0.00 0.00 0.00 73 1011.5
20260507200609 50 86 0.9 1.7 0.00 0.00 0.00 73 1011.4
20260507195604 51 90 0.9 2.6 0.00 0.00 0.00 71 1011.2
20260507194559 51 90 0.9 1.7 0.00 0.00 0.00 71 1011.3
20260507193615 52 90 0.9 1.7 0.00 0.00 0.00 70 1011.4
20260507192550 52 90 1.7 1.7 0.00 0.00 0.00 70 1011.2
20260507191647 53 120 1.7 2.6 0.00 0.00 0.00 67 1011.3
20260507190643 55 0.0 0.0 0.00 0.00 0.00 63 1011.2
20260507185639 53 0.0 0.0 0.00 0.00 0.00 68 1011.1
20260507184635 53 0.0 0.0 0.00 0.00 0.00 68 1011.0
20260507183631 53 0.0 0.0 0.00 0.00 0.00 68 1011.0
20260507182626 53 279 0.9 1.7 0.00 0.00 0.00 68 1011.0
20260507181641 53 295 2.6 3.5 0.00 0.00 0.00 68 1011.1
20260507180617 53 275 2.6 3.5 0.00 0.00 0.00 69 1010.9
20260507175613 54 315 1.7 3.5 0.00 0.00 0.00 70 1011.0
20260507174609 53 280 2.6 4.3 0.00 0.00 0.00 70 1011.0
20260507173604 54 282 2.6 3.5 0.00 0.00 0.00 70 1011.0
20260507172559 54 270 1.7 2.6 0.00 0.00 0.00 70 1011.0
20260507171554 56 270 2.6 3.5 0.00 0.00 0.00 63 1010.9
20260507170549 55 0.0 1.7 0.00 0.00 0.00 64 1011.0
20260507165644 0 0.0 0.0 0.00 0.00 0.00 1010.9
20260507164700 0 0.0 0.0 0.00 0.00 0.00 1010.9
20260507163635 56 293 3.5 3.5 0.00 0.00 0.00 59 1010.7
20260507162631 56 213 5.2 7.0 0.00 0.00 0.00 58 1010.8
20260507161628 56 180 6.1 7.0 0.00 0.00 0.00 57 1010.8
20260507160623 55 180 7.0 7.8 0.00 0.00 0.00 57 1010.7
20260507155618 55 180 3.5 7.8 0.00 0.00 0.00 58 1010.8
20260507154613 55 180 7.0 9.6 0.00 0.00 0.00 57 1010.8
20260507153609 55 180 7.0 8.7 0.00 0.00 0.00 59 1010.8
20260507152604 55 171 6.1 8.7 0.00 0.00 0.00 59 1010.8
20260507151601 55 219 6.1 7.8 0.00 0.00 0.00 61 1010.9
20260507150557 0 0.0 0.0 0.00 0.00 0.00 1010.9
20260507145553 55 180 3.5 3.5 0.00 0.00 0.00 63 1010.9
20260507144549 55 135 3.5 6.1 0.00 0.00 0.00 63 1010.9
20260507143545 0 0.0 0.0 0.00 0.00 0.00 1011.0
20260507142640 0 0.0 0.0 0.00 0.00 0.00 1011.2
20260507141635 0 0.0 0.0 0.00 0.00 0.00 1011.3
20260507140631 0 0.0 0.0 0.00 0.00 0.00 1011.3
20260507135626 0 0.0 0.0 0.00 0.00 0.00 1011.4
20260507134643 0 0.0 0.0 0.00 0.00 0.00 1011.3
20260507133618 0 0.0 0.0 0.00 0.00 0.00 1011.3
20260507132613 57 135 7.0 9.6 0.00 0.00 0.00 60 1011.4
20260507131608 55 180 7.0 8.7 0.00 0.00 0.00 62 1011.5
20260507130603 0 0.0 0.0 0.00 0.00 0.00 1011.5
20260507125617 0 0.0 0.0 0.00 0.00 0.00 1011.5
20260507124553 0 0.0 0.0 0.00 0.00 0.00 1011.4
20260507123629 0 0.0 0.0 0.00 0.00 0.00 1011.4
20260507122545 56 135 4.3 6.1 0.00 0.00 0.00 60 1011.4
20260507121541 0 0.0 0.0 0.00 0.00 0.00 1011.4
20260507120536 57 180 8.7 11.3 0.00 0.00 0.00 60 1011.5
20260507115631 57 135 6.1 7.0 0.00 0.00 0.00 59 1011.4
20260507114626 57 151 6.1 7.0 0.00 0.00 0.00 59 1011.4
20260507113622 56 158 5.2 7.0 0.00 0.00 0.00 60 1011.6
20260507112618 57 118 4.3 7.0 0.00 0.00 0.00 60 1011.6
20260507111614 56 159 4.3 7.0 0.00 0.00 0.00 61 1011.7
20260507110630 55 130 4.3 7.0 0.00 0.00 0.00 64 1011.9
20260507105606 53 146 4.3 6.1 0.00 0.00 0.00 67 1011.9
20260507104602 53 169 5.2 7.0 0.00 0.00 0.00 68 1012.1
20260507103558 52 156 3.5 5.2 0.00 0.00 0.00 70 1012.0
20260507102613 52 111 0.9 3.5 0.00 0.00 0.00 70 1012.1
20260507101548 52 135 2.6 4.3 0.00 0.00 0.00 71 1012.1